Temperature
25 24 23 22 21 20 20 20 20 19 19 19 19 19 19 19 18 18 18 18 18 18 18 18 18 18 18 18 18 18 18 18 18 18 18 18 18 18 18 18 17 17 17
25 24 23 22 21 20 20 20 19 19 19 19 19 19 19 18 18 18 18 18 18 18 18 18 18 18 18 18 18 18 18 18 18 18 18 18 18 18 18 18 18 18 17
25 24 23 22 21 20 20 19 19 19 19 19 19 18 18 18 18 18 18 18 18 18 18 18 18 18 18 18 18 18 18 18 18 18 18 18 18 18 18 18 18 18 18
26 24 23 22 21 20 20 19 19 19 19 19 18 18 18 18 18 18 18 18 18 18 18 18 18 18 18 18 18 18 18 18 18 18 18 18 18 18 18 18 18 18 18
26 24 23 22 21 20 20 19 19 19 19 18 18 18 18 18 18 18 18 18 18 18 18 18 18 18 18 18 18 18 18 18 18 18 18 18 18 18 18 18 18 18 18
26 24 23 22 21 20 20 19 19 19 18 18 18 18 18 18 18 18 18 18 18 18 18 18 18 18 18 18 18 18 18 18 18 18 18 18 18 18 18 18 18 18 18
26 24 23 22 21 20 20 19 19 18 18 18 18 18 18 18 18 18 18 18 18 18 18 18 18 18 18 18 17 18 18 18 18 18 18 18 18 18 18 18 18 19 19
26 24 23 22 21 20 20 19 19 18 18 18 18 18 18 18 18 18 18 18 18 18 18 18 18 18 17 17 17 17 17 17 17 18 18 18 18 18 18 18 18 18 18
26 24 23 22 21 20 20 19 19 18 18 18 18 18 18 18 17 17 17 17 18 17 17 18 17 17 17 17 17 17 17 17 17 17 17 17 18 17 18 18 18 18 18
25 24 23 22 21 21 20 19 19 19 18 18 18 18 18 17 17 17 17 17 17 17 17 17 17 17 17 17 17 17 17 17 17 17 17 17 17 17 17 17 17 17 17
25 24 23 22 21 20 20 19 19 18 18 18 18 17 17 17 17 17 17 17 17 17 17 17 17 17 17 17 17 17 17 17 17 17 17 17 17 17 17 17 17 17 17
24 23 22 21 21 20 19 19 18 18 18 18 17 17 17 17 17 17 17 17 17 17 17 17 17 17 17 17 17 17 17 17 17 17 17 16 16 17 17 17 17 17 17
23 22 22 21 20 20 19 19 18 18 18 17 17 17 17 17 17 17 17 17 17 17 17 17 17 17 16 16 16 16 16 16 16 16 16 16 16 16 16 16 16 16 16
23 22 21 20 20 19 19 19 18 18 17 17 17 17 17 16 16 16 16 16 16 16 16 16 16 16 16 16 16 16 16 16 16 16 16 16 16 16 16 16 16 16 16
22 21 21 20 19 19 18 18 18 17 17 17 17 16 16 16 16 16 16 16 16 16 16 16 16 16 16 16 16 16 16 16 16 15 15 15 15 15 15 15 15 15 15
22 21 20 19 19 18 18 18 17 17 17 17 16 16 16 16 16 16 16 16 16 16 16 16 16 16 15 15 16 15 15 15 15 15 15 15 15 15 15 15 15 15 15
21 20 20 19 18 18 18 17 17 17 17 16 16 16 16 16 16 15 15 15 15 15 15 15 15 15 15 15 15 15 15 15 15 15 15 14 15 15 14 14 14 14 14
20 19 19 18 18 18 17 17 17 17 16 16 16 16 16 15 15 15 15 15 15 15 15 15 14 14 14 15 15 15 14 14 14 14 14 14 14 14 14 14 14 13 13
19 19 18 18 17 17 17 16 16 16 16 16 15 15 15 15 15 15 14 14 14 14 14 14 14 14 14 14 14 14 14 14 13 13 13 13 13 13 13 13 13 13 12
18 18 17 17 16 16 16 16 16 15 15 15 15 15 15 15 14 14 14 14 14 14 13 13 13 13 13 13 13 13 13 13 13 12 12 12 12 12 12 12 12 12 12
17 17 17 16 16 16 16 15 15 15 15 15 15 15 14 14 14 14 14 14 13 13 13 13 13 13 13 13 13 13 12 12 12 12 12 12 12 12 12 12 11 11 11
16 16 16 16 15 15 15 15 14 14 14 14 14 14 14 14 14 14 13 13 13 13 13 12 12 12 12 12 12 12 12 12 11 11 11 11 11 11 11 10 10 10 10
15 15 15 15 15 15 15 14 14 14 14 14 13 13 13 13 13 13 13 13 13 12 12 12 12 11 11 11 11 11 11 11 11 10 10 10 10 10 10 10 9 9 9
15 15 14 14 14 14 14 14 14 13 13 13 13 13 13 12 13 12 12 12 12 12 12 11 11 11 11 10 10 10 10 10 10 10 9 9 9 9 9 9 8 8 8
14 14 14 14 13 13 13 13 13 13 13 12 12 12 12 12 12 12 12 12 12 12 11 11 11 10 10 10 10 10 9 9 9 9 9 9 8 8 8 8 8 8 7
13 13 13 13 13 12 12 12 12 12 12 12 12 11 11 11 11 11 11 10 10 10 10 10 10 10 10 9 9 9 9 9 9 9 8 8 8 8 7 7 7 7 7
Wind_Speed
12 12 12 13 12 11 11 11 10 9 8 7 7 7 6 5 5 5 8 11 11 10 7 4 5 3 3 4 5 3 3 2 1 1 2 2 3 4 4 3 4 6 10
12 12 12 13 13 12 11 11 10 10 9 8 6 5 6 6 6 5 7 10 10 10 9 4 5 5 4 4 4 3 2 3 3 2 1 1 2 3 6 5 5 5 7
13 13 12 12 12 12 12 11 10 9 9 8 6 5 4 4 5 6 6 7 9 9 7 8 5 5 5 5 5 5 4 3 3 2 1 1 2 2 2 5 5 5 4
12 12 13 12 12 12 12 10 10 9 8 8 8 9 7 7 7 6 6 7 8 8 8 7 6 5 4 6 7 6 4 3 3 2 2 2 1 1 1 2 4 6 6
12 10 10 11 11 11 11 10 10 9 8 8 8 8 7 6 5 6 7 8 7 7 8 7 6 6 4 6 6 5 5 3 4 3 3 3 2 3 2 2 2 3 4
12 11 10 10 9 10 10 10 10 8 8 8 8 8 9 8 6 6 7 7 6 7 8 8 6 6 5 5 5 5 6 4 3 3 2 2 2 3 3 3 3 3 4
12 11 11 11 9 9 9 9 9 8 9 9 9 8 8 8 7 7 7 7 6 7 8 8 7 6 5 6 5 6 5 5 4 3 3 3 3 3 2 2 2 2 2
11 11 10 10 9 9 9 8 8 8 8 8 8 7 8 6 6 7 7 7 6 6 7 7 7 6 6 7 6 6 6 6 5 6 5 3 3 3 2 2 1 2 2
11 12 11 9 9 8 8 7 7 7 7 7 7 7 7 7 6 6 6 5 5 6 7 8 8 8 7 6 6 5 6 6 6 5 5 4 4 3 3 2 2 2 2
11 10 10 9 8 8 7 6 6 6 5 5 5 6 5 5 4 4 5 5 5 5 6 8 7 7 7 7 6 6 6 6 5 4 5 4 4 3 3 2 2 2 2
12 10 9 9 8 8 7 6 6 5 5 5 4 3 4 4 5 5 5 4 4 5 5 6 6 6 6 6 6 6 6 6 6 5 5 5 4 3 3 2 2 2 2
11 11 10 9 8 7 7 6 5 5 4 4 3 3 3 3 3 3 3 3 4 4 5 5 5 5 5 5 6 7 6 6 6 5 4 4 4 4 2 2 2 1 1
11 10 9 8 8 7 6 6 5 5 4 4 3 3 3 3 2 2 2 2 3 4 4 5 5 5 4 5 5 5 4 4 4 4 4 4 3 3 2 2 2 1 2
11 10 9 8 7 7 6 5 5 4 5 4 4 4 3 3 2 2 2 2 3 4 4 4 4 4 4 4 4 4 3 3 2 2 2 2 3 3 2 2 1 1 1
10 10 9 8 7 7 6 6 5 6 6 5 4 3 3 3 3 3 3 3 3 3 3 3 3 3 3 3 3 3 4 3 3 2 2 2 2 2 2 1 1 1 1
10 9 9 8 8 6 5 6 5 6 6 5 4 3 4 4 4 4 4 4 5 5 5 4 5 4 3 4 5 4 4 5 4 4 2 2 3 4 4 4 3 2 1
9 9 8 8 7 6 5 5 5 6 5 4 4 4 4 5 5 5 6 6 6 6 7 6 6 6 7 8 9 8 6 6 5 4 3 2 3 3 2 3 3 3 3
9 8 7 7 7 7 6 6 6 6 5 4 4 4 5 5 5 6 6 6 6 6 6 6 6 7 8 9 9 9 7 6 6 6 5 4 5 5 3 2 3 3 3
8 8 7 8 7 6 7 6 6 6 6 5 5 5 4 5 6 6 6 6 6 6 6 6 6 7 7 8 8 7 5 6 8 8 8 7 7 8 7 4 4 5 4
8 8 8 8 7 6 6 7 7 6 6 5 5 5 5 5 6 6 6 6 6 6 7 7 7 7 7 9 9 6 5 6 6 7 9 13 11 11 9 6 5 6 4
9 9 9 8 7 7 7 8 8 7 6 6 6 6 6 6 6 5 5 5 6 7 7 9 9 8 8 10 11 9 5 6 7 7 7 7 10 11 11 8 6 4 2
9 8 8 8 7 7 8 9 8 6 7 7 8 7 6 6 6 6 5 5 6 6 7 8 9 8 8 9 10 12 10 8 8 7 6 6 8 10 9 7 7 6 4
8 7 8 9 8 7 8 8 7 6 7 8 9 8 8 7 6 6 5 4 4 5 6 6 7 7 7 8 12 13 13 12 8 6 7 6 6 6 6 7 7 6 5
8 7 8 9 8 8 8 8 7 7 9 9 8 8 9 9 9 8 7 6 5 5 6 6 7 7 6 6 5 6 7 8 7 5 4 4 4 4 5 5 5 4 5
7 8 9 9 9 9 9 8 7 8 9 9 9 9 9 10 12 13 12 11 9 7 6 6 6 6 6 5 6 5 4 4 3 2 1 2 3 3 4 4 5 5 5
8 9 10 10 10 10 9 8 7 7 8 8 7 8 8 9 10 11 13 19 16 19 18 15 12 10 10 9 11 11 9 8 7 4 4 5 5 5 5 5 5 5 6
Wind_Direction
172 167 165 165 165 165 169 169 175 170 168 174 182 188 188 185 189 188 178 176 184 180 194 191 162 187 167 162 156 150 156 194 210 177 175 212 201 189 178 193 188 190 190
166 169 169 171 172 171 171 172 178 175 177 182 185 185 183 189 196 194 176 182 187 183 192 200 177 180 167 165 165 154 170 208 197 198 175 257 267 230 203 188 197 197 189
170 168 174 174 174 176 177 179 177 176 183 177 174 183 180 195 200 185 177 185 185 189 197 177 189 174 175 173 181 181 188 206 212 205 181 194 220 234 227 207 197 186 187
162 171 176 177 179 178 178 174 174 177 180 177 180 185 190 197 200 187 182 184 183 187 194 183 187 185 189 169 184 189 193 196 217 223 217 226 197 194 226 249 205 192 195
154 166 176 169 173 174 176 174 170 175 177 183 189 193 202 205 202 190 182 182 184 191 195 190 188 189 200 182 188 166 188 194 209 224 220 220 218 230 207 228 216 212 203
145 155 165 157 161 166 169 170 169 175 177 188 197 201 206 207 204 194 184 184 187 196 197 192 190 192 199 187 185 181 194 211 226 239 254 225 217 230 224 224 221 217 213
139 144 151 150 155 162 166 165 168 178 185 192 201 207 211 208 209 207 197 193 193 197 198 195 187 194 195 189 184 188 202 205 218 227 250 254 249 246 234 231 240 233 230
135 136 136 142 152 159 163 164 169 178 187 195 201 206 208 209 212 212 210 205 206 202 190 187 189 194 198 200 191 195 200 201 209 222 230 249 257 269 255 242 245 261 253
134 137 136 140 143 146 152 157 161 170 180 191 196 202 205 206 210 210 209 210 206 202 186 189 197 197 199 204 196 209 209 193 205 218 222 234 251 264 271 259 227 230 258
132 131 134 133 131 135 136 139 151 167 176 183 194 200 197 197 206 216 215 208 207 212 194 191 191 194 198 199 197 210 207 200 207 215 218 221 249 256 257 257 256 240 238
130 127 124 122 125 126 128 129 138 149 163 178 187 191 186 191 199 212 219 213 207 206 201 193 191 192 197 198 202 213 203 201 209 220 215 215 233 261 279 271 256 247 241
120 124 125 122 122 122 125 125 129 138 145 153 161 167 173 178 185 197 202 201 192 194 193 189 187 193 198 199 206 216 207 204 210 216 218 213 219 218 252 283 289 285 262
122 119 116 114 112 112 113 117 122 130 135 132 136 133 132 135 149 168 172 179 179 186 190 186 189 196 196 197 203 207 204 205 204 201 203 208 203 202 216 238 267 298 301
120 117 111 107 104 101 101 104 102 107 116 115 112 111 112 116 126 126 126 155 172 177 181 185 187 184 169 171 178 181 179 178 183 186 193 198 185 191 207 220 237 275 301
120 115 113 109 105 101 100 98 95 90 90 94 92 99 111 115 114 107 102 101 117 133 131 136 139 143 151 157 145 147 154 140 125 105 90 89 101 113 134 175 183 218 245
125 120 113 110 105 101 99 98 97 95 97 97 93 92 104 106 103 100 101 98 99 102 105 104 105 102 109 100 105 109 106 106 102 95 94 102 83 100 108 106 86 84 112
120 116 113 108 103 99 95 96 92 94 94 97 97 95 105 104 99 103 102 99 96 96 97 98 97 88 72 79 88 90 88 88 87 81 70 71 67 72 110 115 99 76 63
113 113 115 114 112 104 95 90 91 95 94 89 86 86 96 104 107 104 101 97 94 93 94 95 94 87 73 74 84 86 86 82 76 67 61 64 48 39 48 83 85 74 44
105 108 109 104 98 96 95 91 86 85 83 82 82 83 86 93 98 100 100 98 97 93 90 89 86 86 73 67 77 86 94 83 74 67 56 58 57 44 48 68 85 85 74
92 98 100 96 91 87 92 96 92 86 82 79 78 79 79 88 95 98 102 104 105 105 100 88 81 84 78 66 69 78 96 95 87 77 66 57 55 47 50 59 71 75 62
92 91 91 88 83 85 91 89 84 78 74 77 78 78 79 84 90 94 101 105 105 103 100 94 83 77 73 68 66 67 80 93 92 81 68 54 53 54 52 57 62 61 43
100 98 96 89 81 82 91 89 83 79 77 78 78 75 75 84 91 92 95 104 110 109 106 99 90 76 66 64 68 69 72 81 90 87 81 72 65 61 51 53 43 31 22
100 100 102 95 85 84 90 95 91 88 86 82 79 76 71 71 71 81 88 98 111 111 108 103 96 88 80 71 70 74 75 77 84 88 96 89 76 68 61 53 40 32 36
103 103 102 96 87 86 90 92 94 92 89 85 82 78 76 69 59 56 55 59 62 85 95 96 96 90 78 69 67 80 84 88 85 87 89 79 54 57 50 44 43 43 39
97 98 99 96 93 89 88 91 96 98 96 92 90 86 81 79 71 64 52 58 52 57 80 86 88 93 84 55 51 65 65 64 69 71 97 86 69 62 62 54 43 38 33
96 95 97 96 94 91 88 85 91 101 103 101 96 96 95 93 93 90 76 59 63 61 64 72 83 78 77 68 58 54 48 42 33 51 72 65 58 56 52 49 47 44 33
Height
1493 1497 1501 1504 1506 1509 1511 1514 1516 1519 1521 1524 1526 1530 1533 1536 1539 1542 1544 1547 1549 1551 1554 1557 1558 1560 1563 1564 1566 1568 1569 1571 1573 1574 1575 1576 1577 1577 1578 1579 1580 1581 1582
1491 1495 1499 1502 1504 1506 1508 1511 1513 1516 1518 1521 1524 1527 1531 1534 1536 1539 1542 1544 1547 1549 1552 1554 1556 1559 1561 1563 1565 1566 1568 1570 1572 1573 1574 1575 1577 1576 1577 1578 1579 1580 1581
1487 1491 1496 1499 1501 1503 1506 1508 1511 1513 1516 1519 1522 1526 1529 1532 1535 1537 1539 1542 1544 1547 1550 1552 1555 1557 1559 1561 1563 1564 1566 1568 1570 1572 1573 1574 1574 1575 1576 1576 1577 1578 1579
1483 1489 1493 1496 1499 1501 1504 1507 1509 1512 1514 1517 1520 1523 1525 1528 1531 1534 1537 1539 1542 1544 1547 1550 1552 1555 1557 1559 1561 1562 1565 1567 1568 1570 1571 1573 1573 1574 1574 1575 1575 1576 1577
1481 1486 1490 1493 1497 1500 1503 1505 1507 1510 1512 1515 1518 1521 1524 1527 1529 1532 1535 1537 1539 1541 1544 1547 1550 1552 1554 1557 1559 1560 1562 1564 1566 1568 1570 1571 1572 1572 1573 1573 1574 1574 1575
1479 1485 1489 1492 1496 1499 1501 1503 1505 1508 1510 1513 1515 1518 1521 1524 1527 1529 1531 1534 1536 1539 1541 1544 1547 1549 1552 1554 1556 1558 1560 1562 1564 1566 1567 1569 1570 1570 1571 1571 1571 1572 1573
1479 1484 1488 1492 1495 1498 1500 1502 1504 1506 1508 1511 1513 1515 1518 1521 1523 1526 1528 1530 1533 1536 1538 1541 1543 1546 1548 1551 1553 1555 1557 1559 1561 1563 1564 1566 1567 1568 1569 1569 1569 1570 1571
1480 1484 1489 1492 1495 1497 1499 1501 1502 1504 1506 1509 1511 1513 1515 1518 1520 1523 1525 1528 1530 1532 1535 1538 1540 1543 1545 1548 1550 1552 1554 1556 1558 1560 1561 1563 1564 1566 1567 1567 1568 1568 1569
1480 1484 1489 1492 1495 1497 1498 1500 1501 1503 1505 1506 1508 1510 1513 1515 1517 1519 1522 1524 1526 1529 1532 1534 1537 1539 1542 1544 1547 1549 1551 1553 1555 1556 1558 1560 1561 1562 1564 1564 1565 1566 1566
1480 1485 1489 1492 1495 1496 1498 1499 1500 1502 1504 1505 1507 1508 1510 1512 1514 1516 1518 1520 1522 1525 1528 1530 1533 1536 1538 1541 1543 1545 1548 1550 1551 1553 1555 1556 1558 1559 1561 1561 1562 1563 1563
1481 1485 1489 1493 1495 1497 1498 1499 1500 1501 1502 1504 1505 1507 1508 1509 1511 1513 1515 1516 1519 1521 1524 1527 1529 1532 1534 1537 1539 1541 1544 1546 1548 1550 1551 1553 1554 1555 1557 1558 1559 1559 1560
1482 1487 1490 1493 1495 1497 1498 1499 1500 1501 1501 1503 1504 1505 1506 1507 1509 1510 1512 1513 1515 1518 1520 1523 1526 1528 1530 1532 1535 1537 1540 1542 1544 1546 1548 1549 1551 1552 1553 1554 1555 1556 1557
1484 1488 1491 1493 1495 1497 1499 1499 1501 1501 1502 1502 1502 1503 1504 1506 1507 1508 1509 1510 1512 1514 1517 1519 1522 1524 1526 1529 1531 1534 1536 1538 1540 1542 1544 1545 1547 1548 1549 1550 1551 1552 1554
1485 1489 1492 1494 1496 1498 1499 1500 1500 1501 1502 1502 1502 1502 1503 1504 1505 1506 1507 1508 1510 1511 1514 1516 1519 1521 1524 1526 1529 1531 1533 1535 1537 1538 1540 1542 1543 1544 1545 1547 1548 1549 1550
1486 1490 1493 1495 1497 1499 1500 1501 1501 1501 1502 1502 1502 1502 1503 1504 1505 1505 1506 1507 1508 1510 1512 1515 1517 1520 1522 1524 1526 1528 1530 1532 1533 1535 1536 1538 1539 1541 1542 1543 1544 1545 1546
1487 1491 1494 1496 1498 1499 1501 1501 1502 1502 1502 1503 1503 1503 1503 1504 1505 1505 1506 1507 1508 1510 1512 1514 1516 1518 1520 1523 1525 1527 1528 1529 1531 1532 1534 1535 1537 1538 1539 1540 1541 1542 1543
1488 1491 1494 1496 1498 1499 1501 1501 1502 1503 1503 1504 1504 1504 1504 1504 1505 1505 1506 1507 1509 1510 1512 1515 1517 1518 1520 1522 1524 1526 1527 1528 1529 1531 1532 1533 1534 1535 1536 1536 1537 1539 1540
1489 1492 1495 1497 1499 1500 1501 1502 1503 1504 1504 1504 1505 1505 1504 1505 1505 1506 1507 1508 1510 1512 1514 1515 1517 1519 1521 1522 1524 1525 1527 1528 1529 1530 1531 1532 1532 1533 1533 1533 1534 1536 1537
1490 1493 1495 1497 1499 1500 1501 1502 1503 1504 1505 1505 1505 1505 1506 1506 1507 1507 1508 1510 1511 1513 1515 1516 1518 1519 1521 1523 1524 1526 1527 1528 1529 1530 1530 1531 1531 1532 1532 1532 1533 1533 1534
1491 1493 1495 1497 1499 1500 1501 1502 1503 1504 1505 1506 1506 1507 1507 1508 1508 1509 1511 1512 1513 1515 1516 1517 1519 1520 1522 1523 1525 1526 1527 1527 1529 1529 1530 1530 1531 1531 1531 1532 1532 1532 1533
1492 1494 1496 1497 1499 1500 1501 1502 1503 1505 1506 1506 1507 1507 1508 1509 1510 1511 1512 1514 1515 1516 1517 1518 1520 1522 1523 1524 1525 1526 1527 1528 1529 1529 1530 1530 1531 1531 1531 1532 1532 1532 1533
1493 1494 1496 1497 1499 1500 1501 1502 1503 1505 1506 1506 1507 1508 1509 1510 1511 1512 1513 1515 1516 1518 1519 1520 1521 1523 1524 1525 1525 1526 1527 1528 1529 1529 1530 1531 1532 1532 1532 1532 1532 1533 1533
1493 1495 1496 1498 1499 1501 1502 1503 1504 1505 1506 1507 1507 1509 1510 1511 1512 1513 1514 1516 1518 1519 1520 1521 1522 1523 1524 1526 1527 1528 1529 1529 1530 1531 1532 1532 1533 1533 1533 1534 1534 1534 1534
1494 1496 1497 1498 1500 1501 1502 1503 1505 1506 1507 1507 1508 1510 1511 1512 1513 1514 1516 1517 1518 1520 1521 1522 1523 1524 1525 1526 1527 1529 1530 1530 1531 1532 1533 1534 1535 1535 1535 1535 1535 1535 1535
1495 1496 1497 1499 1500 1502 1503 1504 1506 1507 1508 1509 1510 1511 1512 1513 1514 1515 1517 1518 1519 1521 1522 1523 1524 1525 1526 1527 1529 1529 1530 1531 1533 1533 1534 1535 1536 1536 1536 1536 1536 1536 1535
1495 1497 1498 1500 1501 1503 1505 1506 1507 1508 1509 1510 1512 1513 1514 1515 1516 1517 1519 1520 1521 1523 1524 1525 1526 1526 1527 1528 1530 1531 1532 1534 1535 1535 1536 1537 1537 1538 1538 1538 1538 1537 1536